FW2285 Weather Reports


time (UTC)temp
C
wind
direction
speed
KPH
gust
KPH
rain 1hr
cm
rain 24hr
cm
rain mn
cm
humidity
%
barometer
mb
20260906171527 33 100 0.0 4.8 0.00 0.00 0.00 46 1015.1
20260906170025 32 107 0.0 4.8 0.00 0.00 0.00 47 1015.3
20260906164524 32 104 0.0 6.4 0.00 0.00 0.00 50 1015.5
20260906163029 32 103 0.0 4.8 0.00 0.00 0.00 52 1015.5
20260906161518 31 103 1.6 6.4 0.00 0.00 0.00 54 1015.7
20260906160017 31 101 0.0 3.2 0.00 0.00 0.00 53 1015.3
20260906154513 30 103 1.6 4.8 0.00 0.00 0.00 55 1015.3
20260906153011 30 107 0.0 4.8 0.00 0.00 0.00 55 1015.1
20260906151508 29 100 0.0 6.4 0.00 0.00 0.00 56 1015.3
20260906150004 28 117 0.0 4.8 0.00 0.00 0.00 56 1015.3
20260906144613 28 117 0.0 4.8 0.00 0.00 0.00 57 1015.3
20260906143105 27 117 0.0 4.8 0.00 0.00 0.00 57 1015.5
20260906141558 27 134 1.6 8.0 0.00 0.00 0.00 58 1015.7
20260906140054 26 136 0.0 3.2 0.00 0.00 0.00 59 1015.6
20260906134556 26 140 0.0 3.2 0.00 0.00 0.00 60 1015.6
20260906133053 25 249 0.0 4.8 0.00 0.00 0.00 60 1015.4
20260906131548 25 248 0.0 3.2 0.00 0.00 0.00 60 1015.4
20260906130055 25 248 0.0 3.2 0.00 0.00 0.00 61 1015.1
20260906124542 24 254 0.0 1.6 0.00 0.00 0.00 61 1015.0
20260906123045 24 254 0.0 1.6 0.00 0.00 0.00 61 1014.7
20260906121546 23 254 0.0 0.0 0.00 0.00 0.00 60 1014.7
20260906120039 24 254 0.0 1.6 0.00 0.00 0.00 60 1014.6
20260906114538 24 254 0.0 0.0 0.00 0.00 0.00 59 1014.5
20260906113036 24 254 0.0 0.0 0.00 0.00 0.00 59 1014.3
20260906111535 24 254 0.0 0.0 0.00 0.00 0.00 60 1014.3
20260906110034 24 254 0.0 1.6 0.00 0.00 0.00 60 1014.1
20260906104534 24 254 0.0 1.6 0.00 0.00 0.00 60 1014.1
20260906103033 24 254 0.0 1.6 0.00 0.00 0.00 61 1013.9
20260906101533 24 254 0.0 0.0 0.00 0.00 0.00 61 1014.2
20260906100038 23 254 0.0 1.6 0.00 0.00 0.00 62 1013.7
20260906094530 23 254 0.0 1.6 0.00 0.00 0.00 62 1013.9
20260906093044 23 254 0.0 3.2 0.00 0.00 0.00 62 1013.8
20260906091529 23 254 0.0 1.6 0.00 0.00 0.00 63 1013.5
20260906090028 23 254 0.0 0.0 0.00 0.00 0.00 63 1013.4
20260906084527 23 254 0.0 0.0 0.00 0.00 0.00 63 1013.3
20260906083027 23 254 0.0 0.0 0.00 0.00 0.00 63 1013.4
20260906081543 24 254 0.0 0.0 0.00 0.00 0.00 63 1013.3
20260906080024 24 254 0.0 0.0 0.00 0.00 0.00 63 1013.2
20260906074523 24 254 0.0 0.0 0.00 0.00 0.00 63 1013.2
20260906073037 24 254 0.0 0.0 0.00 0.00 0.00 63 1013.2
20260906071520 24 254 0.0 0.0 0.00 0.00 0.00 62 1013.0
20260906070029 25 254 0.0 0.0 0.00 0.00 0.00 62 1013.2
20260906064518 25 254 0.0 0.0 0.00 0.00 0.00 62 1013.4
20260906063016 25 254 0.0 0.0 0.00 0.00 0.00 62 1013.7
20260906061515 25 254 0.0 0.0 0.00 0.00 0.00 61 1013.7
20260906060013 25 254 0.0 0.0 0.00 0.00 0.00 61 1013.6
20260906054520 25 254 0.0 0.0 0.00 0.00 0.00 61 1013.8
20260906053011 25 254 0.0 1.6 0.00 0.00 0.00 61 1013.9
20260906051517 25 254 0.0 0.0 0.00 0.00 0.00 61 1013.7
20260906050007 25 254 0.0 0.0 0.00 0.00 0.00 60 1013.5
20260906044506 26 254 0.0 0.0 0.00 0.00 0.00 60 1013.4
20260906043005 26 254 0.0 0.0 0.00 0.00 0.00 60 1013.4
20260906041505 26 254 0.0 0.0 0.00 0.00 0.00 59 1013.2
20260906040005 26 254 0.0 0.0 0.00 0.00 0.00 60 1013.2
20260906034504 26 254 0.0 0.0 0.00 0.00 0.00 60 1013.1
20260906033004 26 254 0.0 0.0 0.00 0.00 0.00 59 1012.9
20260906031503 27 254 0.0 0.0 0.00 0.00 0.00 57 1012.9
20260906030003 27 254 0.0 0.0 0.00 0.00 0.00 56 1012.7
20260906024503 27 254 0.0 0.0 0.00 0.00 0.00 53 1012.5
20260906023001 28 254 0.0 0.0 0.00 0.00 0.00 51 1012.5
20260906021501 28 254 0.0 0.0 0.00 0.00 0.00 49 1012.3
20260906020002 28 254 0.0 0.0 0.00 0.00 0.00 49 1012.1
20260906014626 29 254 0.0 0.0 0.00 0.00 0.00 48 1012.0
20260906013101 29 254 0.0 0.0 0.00 0.00 0.00 47 1011.9
20260906011602 30 254 0.0 0.0 0.00 0.00 0.00 46 1011.8
20260906010059 30 254 0.0 0.0 0.00 0.00 0.00 47 1011.7
20260906004612 31 254 0.0 0.0 0.00 0.00 0.00 45 1011.8
20260906003059 31 254 0.0 0.0 0.00 0.00 0.00 44 1011.7
20260906001557 32 254 0.0 0.0 0.00 0.00 0.00 42 1011.8
20260906000107 32 254 0.0 1.6 0.00 0.00 0.00 40 1011.7
20260905234601 33 254 0.0 0.0 0.00 0.00 0.00 40 1011.6
20260905233058 33 254 0.0 0.0 0.00 0.00 0.00 41 1011.5
20260905231556 33 254 0.0 0.0 0.00 0.00 0.00 37 1011.4
20260905230057 35 257 0.0 1.6 0.00 0.00 0.00 36 1011.4
20260905224605 34 257 0.0 0.0 0.00 0.00 0.00 35 1011.5
20260905223054 35 257 0.0 3.2 0.00 0.00 0.00 33 1011.3
20260905221554 36 257 0.0 4.8 0.00 0.00 0.00 34 1011.3
20260905220053 36 258 1.6 4.8 0.00 0.00 0.00 32 1011.7
20260905214549 36 257 0.0 6.4 0.00 0.00 0.00 30 1011.9
20260905213049 35 257 0.0 4.8 0.00 0.00 0.00 30 1012.0
20260905211549 36 257 0.0 3.2 0.00 0.00 0.00 31 1012.3
20260905210048 36 257 0.0 3.2 0.00 0.00 0.00 30 1012.7
20260905204545 35 255 0.0 3.2 0.00 0.00 0.00 35 1012.9
20260905203044 36 254 0.0 4.8 0.00 0.00 0.00 34 1012.9
20260905201546 35 252 1.6 6.4 0.00 0.00 0.00 35 1012.9
20260905200050 35 252 0.0 3.2 0.00 0.00 0.00 36 1013.2
20260905194540 35 252 0.0 6.4 0.00 0.00 0.00 32 1013.4
20260905193041 35 234 0.0 3.2 0.00 0.00 0.00 35 1013.4
20260905191539 35 233 1.6 6.4 0.00 0.00 0.00 36 1013.5
20260905190048 35 209 0.0 4.8 0.00 0.00 0.00 35 1013.9
20260905184551 35 207 0.0 3.2 0.00 0.00 0.00 35 1013.9
20260905183038 35 221 0.0 3.2 0.00 0.00 0.00 38 1014.0
20260905181534 35 216 0.0 3.2 0.00 0.00 0.00 42 1014.2
20260905180031 34 213 0.0 4.8 0.00 0.00 0.00 40 1014.4
20260905174529 33 210 1.6 4.8 0.00 0.00 0.00 39 1014.6
20260905173028 33 206 0.0 4.8 0.00 0.00 0.00 43 1014.8